Regional Weather Roundup
Issued by NWS Newport/Morehead, NC

Current Version | Previous Version | Text Only | Print | Product List | Glossary On
Versions: 1 2 3 4 5 6 7 8 9 10 11 12 13 14 15 16 17 18 19 20 21 22 23 24 25 26 27 28 29 30 31 32 33 34 35 36 37 38 39 40 41 42 43 44 45 46 47 48 49 50
000
ASUS42 KMHX 250013
RWRMHX
WEATHER ROUNDUP FOR EASTERN NORTH CAROLINA
NATIONAL WEATHER SERVICE NEWPORT/MOREHEAD CITY NC
700 PM EST FRI FEB 24 2017

NOTE: "FAIR" INDICATES FEW OR NO CLOUDS BELOW 12,000 FEET
WITH NO SIGNIFICANT WEATHER AND/OR OBSTRUCTIONS TO VISIBILITY

NCZ015>017-031-032-045>047-102-103-250100-
NORTH COAST

CITY           SKY/WX    TMP DP  RH WIND       PRES   REMARKS
EDENTON        PTCLDY    67  58  75 SE6       29.88S
ELIZABETH CITY CLEAR     64  58  80 SE8       29.88S
KITTY HAWK     NOT AVBL
MANTEO         PTCLDY    63  58  86 E6        29.90S

$$

NCZ045>047-081-094-103-104-250100-
CENTRAL COAST

CITY           SKY/WX    TMP DP  RH WIND       PRES   REMARKS
FRISCO         CLEAR     66  59  78 E7        29.87S

$$

NCZ095-097-098-100-101-250100-
SOUTHERN COAST

CITY           SKY/WX    TMP DP  RH WIND       PRES   REMARKS
BEAUFORT       CLEAR     65  59  81 NE3       29.86R
CEDAR ISLAND   NOT AVBL
JACKSONVILLE   CLEAR     66  61  84 SE6       29.85S
PINEY ISLAND   CLEAR    N/A N/A N/A NE6       29.86S
WILMINGTON     CLEAR     67  61  81 E6        29.85S


$$

NCZ011>013-027>030-043-044-078>080-089-090>093-098-250100-
COASTAL PLAIN

CITY           SKY/WX    TMP DP  RH WIND       PRES   REMARKS
AHOSKIE          N/A     68  58  72 SE5       29.86R
CLINTON        CLEAR     70  60  70 CALM      29.84R
ELIZABETHTOWN  CLEAR     71  59  65 SE3       29.84R
GOLDSBORO      MOCLDY    72  61  70 E12       29.82R
GREENVILLE     CLEAR     70  59  68 S8        29.88R
HAVELOCK         N/A     64  60  87 NE3       29.88R
KENANSVILLE    CLOUDY    70  59  68 SE7       29.85R
KINSTON        CLEAR     70  59  68 SE6       29.86R
NEW BERN       CLEAR     66  60  81 SE6       29.87S
RICHLANDS      CLEAR     67  60  78 CALM      29.86R
ROCKY MOUNT    CLEAR     70  59  68 CALM      29.84R
WASHINGTON     CLEAR     66  59  77 SE8       29.86S
WHITEVILLE     CLEAR     70  59  67 SE3       29.84R

$$

AMZ130-135-150-152-154-156-158-170-250-252-270-ANZ085-086-088-633-658-670-250100-
MARINE OBSERVATIONS

STATION/POSITION TIME  TEMP    WIND        PRES    WAVE   SWELL
                       AIR SEA DIR/SP/G            HT/PER HT/PER
                 (UTC) (F)     (DEG/KT/KT) (MB)    (FT/S) (FT/S)
CHESAPEAKE LIGHT NOT AVBL
64 E VA BEACH    2350   59 55  120/  8/  8 1012.5    6/ 9   7/ 9
DUCK             2348   59 50  130/  7/  8 1011.7
2 E DUCK         2330      53                N/A     5/12   2/12
OREGON INLET     2348           80/  5/  6   N/A
13E OREGON INLT  NOT AVBL
HATTERAS CG      2348   67 63   80/  6/  8 1011.1
DIAMOND BUOY     2350   72 77  100/ 14/ 17 1011.1    8/ 9   7/ 9
CAPE LOOKOUT     0000   66      50/  7/  7 1010.7
BEAUFORT LAB     2348   68 62   30/  3/  4 1010.3
30 SE NEW RVR IN 2308   69      80/  8/ 12 1010.5
30 SE NEW RVR IN 2343      70                N/A     8/10   3/11
27 SE WRIGHTSVLE 2308   68 68   20/  6/ 10 1010.0
5 SE WRIGHTSVLE  2308   62 59   50/  6/ 10 1010.6
225 S CAPE HAT   2350   69 70   40/  8/ 10 1007.2   10/ 9  10/ 9
41 SE CHARLESTON 2250   69 71   30/ 12/ 14 1009.7    7/10   7/10

$$



USA.gov is the U.S. government's official web portal to all federal, state and local government web resources and services.